Regional Weather Roundup
Issued by NWS Burlington, VT

Home | Current Version | Previous Version | Text Only | Print | Product List | Glossary On
Versions: 1 2 3 4 5 6 7 8 9 10 11 12 13 14 15 16 17 18 19 20 21 22 23 24 25 26 27 28 29 30 31 32 33 34 35 36 37 38 39 40 41 42 43 44 45 46 47 48 49 50
000
ASUS41 KBTV 311530
RWRBTV
VERMONT REGIONAL WEATHER ROUNDUP
NATIONAL WEATHER SERVICE BURLINGTON VT
1000 AM EST SAT JAN 31 2015

NOTE: "FAIR" INDICATES FEW OR NO CLOUDS BELOW 12,000 FEET WITH NO
SIGNIFICANT WEATHER AND/OR OBSTRUCTIONS TO VISIBILITY.

* THESE REPORTS ARE NOT UNDER NWS QUALITY CONTROL AND/OR DO NOT
  REPORT WEATHER SUCH AS PRECIPITATION AND FOG.

VTZ001>019-311600-
_____VERMONT_____


CITY           SKY/WX    TMP DP  RH WIND       PRES   REMARKS
BURLINGTON     MOSUNNY   -1 -14  53 N10       30.20S WCI -17
MONTPELIER     SUNNY     -5 -14  65 NW14G23   30.06F WCI -25
MORRISVILLE    MIX PCPN  -3 -14  59 N10G20    30.12S WCI -20
ST. JOHNSBURY*   N/A      0 -12  57 MISG      30.05S
LYNDONVILLE*   FAIR      -3 -15  56 NW13G22   30.02S WCI -21
MIDDLEBURY*    LGT SNOW   1 -12  54 N12G23    30.15S WCI -15
RUTLAND*       SUNNY    N/A N/A N/A NW17G25   30.08R
SPRINGFIELD    SUNNY      6 -10  47 VRB6      30.01F
HIGHGATE*      FAIR      -3 -15  56 NW6       30.23S
NEWPORT*       FAIR      -6 -16  62 NW9       30.08S
BENNINGTON     SUNNY      2 -11  54 N10       30.11R WCI -14
SUTTON*          N/A     -6 N/A N/A MISG        N/A
GALLUP MILLS*    N/A     -4 N/A N/A MISG        N/A
UNION VILLAGE*   N/A      3 N/A N/A MISG        N/A
MT. MANSFIELD*   N/A     -8 N/A N/A CALM        N/A

_____LAKE CHAMPLAIN_____


CITY           SKY/WX    TMP DP  RH WIND       PRES   REMARKS
BURTON ISLAND*   N/A      0 -11  60 NW7         N/A
COLCHESTER RF*   N/A      0  -6  78 E13         N/A  WCI -18
DIAMOND ISL*     N/A      5   1  85 N18         N/A  WCI -15

$$

NYZ007-026>031-035-052-083-311600-
_____NORTHERN NEW YORK_____


CITY           SKY/WX    TMP DP  RH WIND       PRES   REMARKS
PLATTSBURGH    SUNNY      2 -15  45 CALM      30.21S
SARANAC LAKE   SUNNY     -9 -16  71 SW6       30.07R
MASSENA        SUNNY     -6 -16  61 W10       30.33R WCI -24
OGDENSBURG*    SUNNY      1 -11  55 W3        30.32S
STARK FALLS*     N/A     -8 N/A N/A W8          N/A
WATERTOWN        N/A    N/A N/A N/A MISG      30.35R
FT DRUM        SUNNY     -4 -13  65 NW3       30.29R
ALBANY         SUNNY      4 -12  48 NW16      30.20R WCI -15
GLENS FALLS    SUNNY      4 -13  45 N10       30.18S WCI -11

$$
NHZ002-005-011-311600-
_____NEW HAMPSHIRE_____


CITY           SKY/WX    TMP DP  RH WIND       PRES   REMARKS
LEBANON        SUNNY      3 -11  52 NW14      30.03F WCI -15
KEENE            N/A      9  -8  47 N23       29.97R VSB 3/4 WCI -12
MT WASHINGTON  MOSUNNY   -4 -17  54 NW58G67     N/A  WCI -38
PLYMOUTH       FAIR       2  -7  68 W22G38    29.94R HAZE    WCI -21
WHITEFIELD     PTSUNNY   -4 -13  65 NW6       30.00S

$$

_____REGIONAL QUEBEC LOCATIONS_____


CITY           SKY/WX    TMP DP  RH WIND       PRES   REMARKS
MONTREAL       MOSUNNY   -6 -17  59 W10       30.27R WCI -23
QUEBEC CITY    MOSUNNY    0 -11  60 SW16      30.03R WCI -21
SHERBROOKE     LGT SNOW  -6 -15  65 W15G22    30.06F WCI -27

_____REGIONAL ONTARIO LOCATIONS_____


CITY           SKY/WX    TMP DP  RH WIND       PRES   REMARKS
OTTAWA         SUNNY     -6 -15  65 W9        30.31R

______KEY______
VSB  - VISIBILITY IN MILES
WCI  - WIND CHILL INDEX
HX   - HEAT INDEX
$$
NNNN



USA.gov is the U.S. government's official web portal to all federal, state and local government web resources and services.